Regional Weather Roundup
Issued by NWS

Home | Current Version | Previous Version | Text Only | Print | Product List | Glossary Off
Versions: 1 2 3 4 5 6 7 8 9 10 11 12 13 14 15 16 17 18 19 20 21 22 23 24 25 26 27 28 29 30 31 32 33 34 35 36 37 38 39 40 41 42 43 44 45 46 47 48 49 50

000
ASUS44 KMEG 210910
RWRTN
TENNESSEE HOURLY STATE WEATHER ROUNDUP
NATIONAL WEATHER SERVICE MEMPHIS TN
300 AM CST WED FEB 21 2018

TNZ002-004-019-021-049-052-054-088>092-211000-
WEST TENNESSEE

CITY           SKY/WX    TMP DP  RH WIND       PRES   REMARKS
MEMPHIS INTL   MOCLDY    70  64  81 S16       30.13R
NWS MEMPHIS      N/A     70 N/A N/A MISG        N/A
JACKSON        FAIR      70  65  84 S13G24    30.12F
DYERSBURG      RAIN      58  56  93 NW16G26   30.18R
SOMERVILLE     PTCLDY    70  64  83 S13G20    30.12F
COVINGTON      CLOUDY    63  57  82 N23G41    30.15R
UNION CITY     CLOUDY    59  57  94 NW16      30.15R
BOLIVAR        CLOUDY    70  64  83 S14G22    30.15S
PARIS          CLOUDY    70  63  78 SW12G17   30.11S
HUNTINGDON     CLOUDY    70  64  83 S15G22    30.11F
LEXINGTON      MOCLDY    70  63  78 S13G22    30.15F
SELMER         CLOUDY    70  64  83 S10G20    30.16F
SAVANNAH       CLOUDY    70  64  83 S9        30.18S
$$

TNZ008-025-027-028-033-062-065-066-211000-
NORTH MIDDLE TENNESSEE

CITY           SKY/WX    TMP DP  RH WIND       PRES   REMARKS
NASHVILLE      MOCLDY    71  63  75 S16       30.20S
PORTLAND       PTCLDY    68  63  83 S15G24    30.17R
CLARKSVILLE    MOCLDY    71  59  65 S18G24    30.13S
SMYRNA         CLOUDY    70  63  78 S13       30.21S
COOKEVILLE     PTCLDY    66  61  82 S10       30.23F
GALLATIN       CLOUDY    70  63  78 S8G23     30.21S
CROSSVILLE     MOCLDY    64  59  83 S10G23    30.29F
$$

TNZ061-075-076-078-094-096-097-211000-
SOUTH MIDDLE TENNESSEE

CITY           SKY/WX    TMP DP  RH WIND       PRES   REMARKS
FAYETTEVILLE   CLOUDY    68  64  88 S10       30.25S FOG
TULLAHOMA      MOCLDY    68  63  83 S14G21    30.24S
WINCHESTER     CLOUDY    68  63  83 S9        30.26F
MCMINNVILLE    MOCLDY    70  63  78 SW9G17    30.24S
COLUMBIA       CLOUDY    70  68  94 S16G25    30.19S
SHELBYVILLE    CLOUDY    70  63  78 S14G22    30.23R
$$

TNZ017-018-042-046-047-211000-
NORTHEAST TENNESSEE

CITY           SKY/WX    TMP DP  RH WIND       PRES   REMARKS
TRI CITIES     CLOUDY    64  57  78 SE3       30.32F
ELIZABETHTON   CLOUDY    55  54  94 CALM      30.34S
$$

TNZ012-013-036-069-073-074-211000-
CENTRAL EAST TENNESSEE

CITY           SKY/WX    TMP DP  RH WIND       PRES   REMARKS
KNOXVILLE      MOCLDY    64  61  90 W6        30.29F
OAK RIDGE      MOCLDY    65  61  87 CALM      30.31F
DOWNTOWN KNOXV MOCLDY    59  57  94 CALM      30.30F
GATLINBURG     CLOUDY    63  55  77 E6        30.30R
MORRISTOWN     CLOUDY    63  55  77 CALM      30.31S
JACKSBORO      CLOUDY    70  61  73 S13G21    30.31F
$$

TNZ083-085-099-211000-
SOUTHEAST TENNESSEE

CITY           SKY/WX    TMP DP  RH WIND       PRES   REMARKS
CHATTANOOGA    MOCLDY    67  61  81 SE8       30.31F
$$

SKY/WX REPORTED AS FAIR MEANS FEW OR NO CLOUDS BELOW
12 THOUSAND FEET.





USA.gov is the U.S. government's official web portal to all federal, state and local government web resources and services.